Regional Weather Roundup
Issued by NWS

Home | Current Version | Previous Version | Text Only | Print | Product List | Glossary On
Versions: 1 2 3 4 5 6 7 8 9 10 11 12 13 14 15 16 17 18 19 20 21 22 23 24 25 26 27 28 29 30 31 32 33 34 35 36 37 38 39 40 41 42 43 44 45 46 47 48 49 50
000
ASUS44 KOUN 201710
RWROK

WEATHER ROUNDUP FOR OKLAHOMA
NATIONAL WEATHER SERVICE NORMAN OK
1200 PM CDT SUN MAY 20 2018

NOTE: "FAIR" INDICATES FEW OR NO CLOUDS BELOW 12,000 FEET WITH NO
      SIGNIFICANT WEATHER AND/OR OBSTRUCTIONS TO VISIBILITY.

OKZ001>007-009>012-014-015-017-201800-
NORTHWEST OKLAHOMA AND THE PANHANDLE

CITY           SKY/WX    TMP DP  RH WIND       PRES   REMARKS
GAGE           CLOUDY    64  47  53 N13       30.17R
GUYMON         PTSUNNY   62  46  55 N13       30.20F
ENID/WOODRING  CLOUDY    66  59  77 NW14      30.09R
$$

OKZ016-021>023-033>039-044-045-201800-
SOUTHWEST OKLAHOMA

CITY           SKY/WX    TMP DP  RH WIND       PRES   REMARKS
LAWTON/REGL    CLOUDY    70  62  76 N9        30.10R
LAWTON/FT SILL CLOUDY    70  64  83 N10       30.09R
FREDERICK      PTSUNNY   69  60  73 N16       30.08F
CLINTON        PTSUNNY   65  53  65 N13       30.15R
HOBART         CLOUDY    68  56  65 N10       30.14S
ALTUS AFB      PTSUNNY   67  55  66 N12       30.12F
$$

OKZ018>020-024>031-201800-
CENTRAL OKLAHOMA

CITY           SKY/WX    TMP DP  RH WIND       PRES   REMARKS
OKLAHOMA CITY  CLOUDY    66  60  81 N10       30.09S
OKC/WILEY POST CLOUDY    64  60  87 N10       30.10S
OKC/TINKER AFB CLOUDY    64  61  88 N10       30.08S
STILLWATER     LGT RAIN  63  61  93 NW8       30.09R FOG
GUTHRIE        CLOUDY    63  60  90 NW7       30.10S
$$

OKZ008-013-054>072-201800-
NORTHEAST OKLAHOMA

CITY           SKY/WX    TMP DP  RH WIND       PRES   REMARKS
TULSA          CLOUDY    74  65  73 S8        30.03R
TULSA/JONES    CLOUDY    73  66  78 SW6       30.05R
PONCA CITY     CLOUDY    63  58  83 N7        30.10R HAZE
BARTLESVILLE   CLOUDY    72  65  78 VRB3      30.07R
MUSKOGEE       PTSUNNY   78  70  76 S12       30.04S
$$

OKZ032-040>043-046>053-073>077-201800-
SOUTH CENTRAL/SOUTHEAST OKLAHOMA

CITY           SKY/WX    TMP DP  RH WIND       PRES   REMARKS
ARDMORE/DWNTWN CLOUDY    70  63  78 NW7       30.05R
MCALESTER      CLOUDY    78  69  73 S14       30.03F
$$




USA.gov is the U.S. government's official web portal to all federal, state and local government web resources and services.